This demonstration page uses our WeatherBlox Daily Observations layout. Learn more.

Left ArrowRight Arrow

Hourly Observations for October 28, 2015

Temp ( °F °C ) Dew Point ( °F °C ) Humidity (%) Winds ( mph kmh ) Pressure ( in mb ) Visibility ( mi km ) Precip ( " mm )
12:03 am 00:03 Cloudy with Rain 55 12.8 53 11.7 93 93 ESE 12 19 29.88 1012 5 8 0.02 0.51
12:22 am 00:22 Cloudy with Light Rain 55 12.8 53 11.7 93 93 ESE 12 19 29.85 1011 9 14 0.03 0.76
12:53 am 00:53 Cloudy with Heavy Rain 55 12.8 53 11.7 93 93 ESE 12 19 29.84 1010 4 6 0.08 2.03
1:10 am 01:10 Cloudy with Heavy Rain 55 12.8 53 11.7 93 93 ESE 12 19 29.83 1010 3 4 0.08 2.03
1:45 am 01:45 Cloudy with Rain 55 12.8 53 11.7 93 93 ESE 14 22 29.77 1008 3 5 0.20 5.08
1:53 am 01:53 Cloudy with Rain 55 12.8 53 11.7 93 93 ESE 12 19 29.77 1008 3 5 0.23 5.84
2:00 am 02:00 Cloudy with Rain 55 12.8 53 11.7 93 93 SE 12 19 29.77 1008 3 4 0.02 0.51
2:09 am 02:09 Cloudy with Rain 55 12.8 53 11.7 93 93 SE 10 17 29.77 1008 3 5 0.04 1.02
2:53 am 02:53 Cloudy with Light Rain 56 13.3 53 11.7 90 90 SE 12 19 29.73 1007 4 6 0.11 2.79
3:01 am 03:01 Cloudy with Light Rain 56 13.3 53 11.7 90 90 SE 10 17 29.74 1007 7 11 0.00 0.03
3:10 am 03:10 Cloudy with Light Rain 56 13.3 53 11.7 90 90 SE 9 15 29.74 1007 6 10 0.01 0.25
3:53 am 03:53 Cloudy with Heavy Rain 56 13.3 54 12.2 93 93 SE 9 15 29.70 1006 3 5 0.12 3.05
4:32 am 04:32 Cloudy with Heavy Rain 56 13.3 54 12.2 93 93 VRB 7 11 29.68 1005 4 6 0.09 2.29
4:53 am 04:53 Cloudy with Heavy Rain 56 13.3 54 12.2 93 93 VRB 6 9 29.67 1005 3 4 0.16 4.06
5:06 am 05:06 Cloudy with Light Rain 56 13.3 54 12.2 93 93 Calm 29.68 1005 5 8 0.01 0.25
5:14 am 05:14 Cloudy with Light Rain 56 13.3 54 12.2 93 93 VRB 3 6 29.68 1005 9 14 0.01 0.25
5:53 am 05:53 Cloudy with Rain 56 13.3 54 12.2 93 93 VRB 5 7 29.68 1005 3 4 0.10 2.54
6:06 am 06:06 Cloudy with Heavy Rain 56 13.3 55 12.8 97 97 VRB 3 6 29.68 1005 2 2 0.09 2.29
6:11 am 06:11 Cloudy with Heavy Rain 56 13.3 55 12.8 97 97 VRB 5 7 29.68 1005 2 3 0.12 3.05
6:42 am 06:42 Cloudy with Heavy Rain 56 13.3 55 12.8 97 97 SSE 6 9 29.68 1005 3 5 0.25 6.35
6:47 am 06:47 Cloudy with Heavy Rain 55 13 55 13 100 100 VRB 6 9 29.65 1004 4 6 0.27 6.86
6:53 am 06:53 Cloudy with Light Rain 56 13.3 55 12.8 97 97 VRB 3 6 29.66 1004 5 8 0.27 6.86
7:02 am 07:02 Cloudy with Rain 56 13.3 55 12.8 97 97 VRB 3 6 29.65 1004 7 11 0.01 0.25
7:36 am 07:36 Cloudy with Light Rain 57 13.9 55 12.8 93 93 Calm 29.65 1004 7 11 0.03 0.76
7:53 am 07:53 Cloudy with Rain 57 13.9 55 12.8 93 93 VRB 5 7 29.65 1004 6 10 0.06 1.52
8:53 am 08:53 Cloudy with Light Rain 57 13.9 56 13.3 96 96 VRB 5 7 29.62 1003 5 8 0.15 3.81
9:14 am 09:14 Cloudy with Light Rain 58 14.4 56 13.3 93 93 VRB 5 7 29.62 1003 9 14 0.01 0.25
9:53 am 09:53 Cloudy with Light Rain 58 14.4 57 13.9 97 97 VRB 7 11 29.61 1003 10 16 0.01 0.25
10:12 am 10:12 Cloudy with Light Rain 59 15 57 13.9 93 93 VRB 7 11 29.62 1003 7 11 0.01 0.25
10:41 am 10:41 Cloudy with Light Rain 60 15.6 58 14.4 93 93 VRB 5 7 29.59 1002 8 13 0.03 0.76
10:48 am 10:48 Cloudy with Light Rain 61 16 59 15 94 94 VRB 5 7 29.59 1002 10 16 0.03 0.76
10:53 am 10:53 Cloudy 61 16.1 59 15 93 93 S 7 11 29.59 1002 10 16 0.03 0.76
11:04 am 11:04 Cloudy 61 16.1 59 15 93 93 S 7 11 29.59 1002 10 16 0.00 0.00
11:39 am 11:39 Cloudy with Light Rain 62 16.7 60 15.6 93 93 VRB 6 9 29.59 1002 3 4 0.00 0.03
11:46 am 11:46 Cloudy with Light Rain 62 16.7 61 16.1 96 96 VRB 3 6 29.59 1002 3 5 0.00 0.03
11:53 am 11:53 Cloudy with Light Rain 62 16.7 61 16.1 96 96 SSW 6 9 29.58 1002 4 6 0.00 0.03
12:41 pm 12:41 Cloudy 64 17.8 62 16.7 93 93 SSW 9 15 29.59 1002 10 16 0.01 0.25
12:53 pm 12:53 Cloudy 65 18.3 62 16.7 90 90 SSW 9 15 29.57 1001 10 16 0.01 0.25
1:03 pm 13:03 Cloudy 65 18.3 62 16.7 90 90 SSW 9 15 29.59 1002 10 16 0.00 0.00
1:20 pm 13:20 Cloudy with Rain 64 17.8 61 16.1 90 90 WSW 8 13 29.59 1002 2 3 0.01 0.25
1:27 pm 13:27 Cloudy with Light Rain 64 17.8 62 16.7 93 93 SW 8 13 29.59 1002 3 5 0.01 0.25
1:53 pm 13:53 Mostly Cloudy 65 18.3 61 16.1 87 87 SW 10 17 29.56 1001 10 16 0.02 0.51
2:53 pm 14:53 Mostly Cloudy 68 20 60 15.6 76 76 SW 10 17 29.54 1001 10 16 0.00 0.00
3:53 pm 15:53 Mostly Cloudy with Light Rain 66 18.9 59 15 78 78 SW 12 19 29.54 1001 9 14 0.00 0.03
4:53 pm 16:53 Cloudy 68 20 58 14.4 70 70 SW 12 19 29.56 1001 10 16 0.00 0.03
5:53 pm 17:53 Cloudy 65 18.3 57 13.9 76 76 SW 12 19 29.57 1001 10 16 0.00 0.00
6:53 pm 18:53 Mostly Clear 63 17.2 56 13.3 78 78 WSW 9 15 29.59 1002 10 16 0.00 0.03
7:53 pm 19:53 Mostly Clear 61 16.1 51 10.6 70 70 W 12 19 29.62 1003 10 16 0.00 0.00
8:53 pm 20:53 Clear 59 15 50 10 72 72 W 10 17 29.64 1004 10 16 0.00 0.00
9:53 pm 21:53 Clear 56 13.3 50 10 81 81 WSW 7 11 29.64 1004 10 16 0.00 0.00
10:53 pm 22:53 Clear 53 11.7 49 9.4 86 86 SSW 3 6 29.64 1004 10 16 0.00 0.00
11:53 pm 23:53 Cloudy 56 13.3 50 10 81 81 SW 7 11 29.64 1004 10 16 0.00 0.03

Powered by AerisWeather